#timestamp,LO_Frequency,Hit,StdDev 
1457996415.3,286046993.3,N
1457996435.2,286046994.7,N
1457996455.0,286046999.2,N
1457996455.9,286046999.2,N
1457996475.7,286046997.2,N
1457996495.6,286046996.8,N
1457996515.4,286046998.4,N
1457996535.2,286047000.3,N
1457996555.1,286047004.3,N
1457996556.0,286047004.3,N
1457996575.8,286047002.3,N
1457996595.6,286047002.0,N
1457996615.5,286047003.3,N
1457996635.3,286047007.2,N
1457996655.1,286047008.9,N
1457996675.9,286047006.3,N
1457996695.7,286047009.1,N
1457996715.5,286047008.2,N
1457996735.3,286047012.7,N
1457996755.2,286047013.1,N
1457996775.0,286047013.3,N
1457996775.9,286047013.3,N
1457996795.7,286047016.4,N
1457996815.6,286047014.5,N
1457996835.4,286047009.5,N
1457996855.2,286047008.4,N
1457996875.1,286047006.7,N
1457996876.0,286047006.7,N
1457996895.8,286047001.3,N
1457996915.6,286047004.1,N
1457996935.5,286047004.3,N
1457996955.3,286047003.3,N
1457996975.1,286047003.1,N
1457996995.9,286047005.7,N
1457997015.7,286047010.6,N
1457997035.5,286047010.7,N
1457997055.4,286047006.6,N
1457997075.2,286047005.0,N
1457997095.0,286047004.1,N
1457997095.9,286047004.1,N
1457997115.8,286047001.3,N
1457997135.6,286047002.9,N
1457997155.4,286047002.2,N
1457997175.2,286047001.6,N
1457997195.1,286047000.8,N
1457997196.0,286047000.8,N
1457997215.8,286046998.6,N
1457997235.6,286046998.5,N
1457997255.5,286046998.1,N
1457997275.3,286046998.8,N
1457997295.1,286047000.2,N
1457997315.9,286046999.0,N
1457997335.7,286046999.9,N
1457997355.5,286046996.9,N
1457997375.4,286046999.1,N
1457997395.2,286046995.1,N
1457997415.0,286046997.9,N
1457997415.9,286046997.9,N
1457997435.8,286046993.5,N
1457997455.6,286046992.3,N
1457997475.4,286046990.9,N
1457997495.3,286046991.2,N
1457997515.1,286046989.3,N
1457997516.0,286046989.3,N
1457997535.8,286046991.3,N
1457997555.7,286046990.3,N
1457997575.5,286046990.5,N
1457997595.3,286046990.2,N
1457997615.1,286046993.8,N
1457997635.9,286046995.9,N
1457997655.7,286046996.4,N
1457997675.5,286046993.6,N
1457997695.4,286046994.4,N
1457997715.2,286046994.7,N
1457997735.0,286046993.0,N
1457997735.9,286046993.0,N
1457997755.8,286046990.5,N
1457997775.6,286046992.7,N
1457997795.4,286046990.5,N
1457997815.3,286046991.2,N
1457997835.1,286046989.9,Y
1457997836.0,286046989.9,P
1457997855.8,286046994.7,N
1457997875.7,286046994.1,N
1457997895.5,286046992.5,Y
1457997915.3,286046999.5,P
1457997935.2,286046998.6,N
1457997955.9,286046998.5,N
1457997975.7,286046999.0,N
1457997995.6,286047000.5,N
1457998015.4,286047002.0,N
1457998035.2,286047000.1,N
1457998055.1,286047002.5,N
1457998056.0,286047002.5,N
1457998075.8,286047001.6,N
1457998095.6,286047005.8,N
1457998115.5,286047005.1,N
1457998135.3,286047004.9,N
1457998155.1,286047007.5,N
1457998175.8,286047006.3,N
1457998195.7,286047008.1,N
1457998215.5,286047010.6,N
1457998235.3,286047007.6,N
1457998255.2,286047005.3,N
1457998275.9,286047006.2,N
1457998295.7,286047011.9,N
1457998315.6,286047010.8,N
1457998335.4,286047007.0,N
1457998355.2,286047005.7,N
1457998375.1,286047003.2,N
1457998376.0,286047003.2,N
1457998395.8,286047006.9,N
1457998415.6,286047009.1,N
1457998435.4,286047009.0,N
1457998455.3,286047006.1,N
1457998475.1,286047010.8,N
1457998495.8,286047009.2,N
1457998515.7,286047006.8,N
1457998535.5,286047006.3,N
1457998555.3,286047008.8,N
1457998575.2,286047007.6,N
1457998595.9,286047005.5,N
1457998615.7,286047007.5,N
1457998635.6,286047006.7,N
1457998655.4,286047004.1,N
1457998675.2,286047003.2,N
1457998695.1,286047006.9,Y
1457998696.0,286047006.9,P
1457998715.8,286046995.3,P
1457998735.6,286046999.4,N
1457998755.5,286047000.5,N
1457998775.3,286046998.7,N
1457998795.1,286046995.4,N
1457998815.9,286046995.3,N
1457998835.7,286046998.8,N
1457998855.5,286047000.0,N
1457998875.3,286046998.8,N
1457998895.2,286046997.1,N
1457998915.0,286046994.8,N
1457998915.9,286046994.8,N
1457998935.7,286046994.6,N
1457998955.6,286046994.9,N
1457998975.4,286046994.3,N
1457998995.2,286046993.3,N
1457999015.1,286046993.7,N
1457999016.0,286046993.7,N
1457999035.8,286046993.4,N
1457999055.6,286046997.3,N
1457999075.5,286046996.3,N
1457999095.3,286046991.1,N
1457999115.1,286046990.5,N
1457999135.9,286046990.1,N
1457999155.7,286046991.5,N
1457999175.5,286046989.5,N
1457999195.4,286046986.9,Y
1457999215.2,286046997.1,P
1457999235.0,286046997.8,P
1457999235.9,286046997.8,N
1457999255.8,286046996.6,Y
1457999275.6,286046996.9,P
1457999295.4,286046994.9,P
1457999315.3,286046997.9,N
1457999335.1,286046997.3,N
1457999336.0,286046997.3,N
1457999355.8,286046994.9,Y
1457999375.7,286046996.7,P
1457999395.5,286046998.6,P
1457999415.3,286046997.4,P
1457999435.2,286046995.4,Y
1457999455.9,286047001.1,P
1457999475.7,286047000.6,N
1457999495.6,286046997.4,N
1457999515.4,286047000.7,N
1457999535.2,286046996.9,N
1457999555.0,286046995.0,N
1457999555.9,286046995.0,N
1457999575.8,286046994.0,N
1457999595.6,286046996.1,N
1457999615.4,286046994.8,N
1457999635.3,286046997.4,N
1457999655.1,286046995.7,N
1457999675.8,286046995.0,N
1457999695.7,286046993.9,N
1457999715.5,286046992.6,Y
1457999735.3,286046997.5,P
1457999755.2,286046995.1,P
1457999775.9,286046995.6,P
1457999795.7,286046995.9,Y
1457999815.6,286046999.3,P
1457999835.4,286046997.1,N
1457999855.2,286046995.1,P
1457999875.1,286046996.4,N
1457999876.0,286046996.4,N
1457999895.8,286046995.3,Y
1457999915.6,286046999.4,P
1457999935.5,286046996.8,N
1457999955.3,286046997.8,N
1457999975.1,286046997.5,N
1457999995.9,286047000.6,N
